User: anonymous   Login
Location: Unspecified
(51.0950°N, 12.9690°E)
Time: 15:25:17
(UTC+00:00)
Language:

Cosmos 2061 Rocket - Orbit

View from above orbital plane
View from above orbital plane
View from above satellite
View from above satellite

Ground track
Ground track

The orbit data is extracted from the following two-line orbital elements,

1 20528U 90023B   22023.43509848  .00000013  00000-0 -19688-5 0  9993
2 20528  82.9345 261.2210 0032683  34.9055 138.4939 13.72902475595716
Epoch (UTC): 23 January 2022 10:26:32
Eccentricity: 0.0032683
inclination: 82.9345°
perigee height: 965 km
apogee height: 1013 km
right ascension of ascending node: 261.2210°
argument of perigee: 34.9055°
revolutions per day: 13.72902475
mean anomaly at epoch: 138.4939°
orbit number at epoch: 59571

The dashed part of the orbit path shows where the satellite is in the earth's shadow,  

DLR